Time,TemperatureF,DewpointF,PressureIn,WindDirection,WindDirectionDegrees,WindSpeedMPH,WindSpeedGustMPH,Humidity,HourlyPrecipIn,Conditions,Clouds,dailyrainin,SoftwareType,DateUTC
2013-02-26 00:03:00,31.8,26.0,30.02,NNE,18,2.0,9.0,78,0.00,,,0.00,weatherlink.com 1.10,2013-02-26 05:03:00,
2013-02-26 00:18:00,31.6,25.0,30.01,ENE,76,3.0,11.0,78,0.00,,,0.00,weatherlink.com 1.10,2013-02-26 05:18:00,
2013-02-26 00:33:00,31.5,25.0,30.00,ENE,68,5.0,13.0,78,0.00,,,0.00,weatherlink.com 1.10,2013-02-26 05:33:00,
2013-02-26 00:48:00,31.3,25.0,30.01,NE,36,2.0,9.0,78,0.00,,,0.00,weatherlink.com 1.10,2013-02-26 05:48:00,
2013-02-26 01:03:00,31.2,25.0,30.00,NE,55,5.0,9.0,78,0.00,,,0.00,weatherlink.com 1.10,2013-02-26 06:03:00,
2013-02-26 01:18:00,31.3,25.0,29.99,NNE,32,6.0,12.0,77,0.00,,,0.00,weatherlink.com 1.10,2013-02-26 06:18:00,
2013-02-26 01:33:00,31.3,25.0,29.98,NE,54,3.0,10.0,77,0.00,,,0.00,weatherlink.com 1.10,2013-02-26 06:33:00,
2013-02-26 01:48:00,31.3,25.0,29.98,ENE,67,4.0,10.0,77,0.00,,,0.00,weatherlink.com 1.10,2013-02-26 06:48:00,
2013-02-26 02:03:00,31.3,25.0,29.98,ENE,72,2.0,14.0,77,0.00,,,0.00,weatherlink.com 1.10,2013-02-26 07:03:00,
2013-02-26 02:18:00,31.2,25.0,29.98,NE,51,2.0,8.0,78,0.00,,,0.00,weatherlink.com 1.10,2013-02-26 07:18:00,
2013-02-26 02:33:00,31.2,25.0,29.96,NE,49,6.0,11.0,78,0.00,,,0.00,weatherlink.com 1.10,2013-02-26 07:33:00,
2013-02-26 02:48:00,31.4,25.0,29.95,NNE,18,5.0,9.0,77,0.00,,,0.00,weatherlink.com 1.10,2013-02-26 07:48:00,
2013-02-26 03:04:00,31.6,25.0,29.93,ESE,117,3.0,10.0,77,0.00,,,0.00,weatherlink.com 1.10,2013-02-26 08:04:00,
2013-02-26 03:19:00,31.9,25.0,29.91,ENE,60,10.0,12.0,76,0.00,,,0.00,weatherlink.com 1.10,2013-02-26 08:19:00,
2013-02-26 03:34:00,32.1,25.0,29.89,ENE,77,2.0,13.0,76,0.00,,,0.00,weatherlink.com 1.10,2013-02-26 08:34:00,
2013-02-26 03:49:00,32.0,26.0,29.88,ENE,64,1.0,11.0,77,0.00,,,0.00,weatherlink.com 1.10,2013-02-26 08:49:00,
2013-02-26 04:04:00,32.0,25.0,29.88,NE,54,5.0,11.0,76,0.00,,,0.00,weatherlink.com 1.10,2013-02-26 09:04:00,
2013-02-26 04:19:00,32.0,26.0,29.88,NE,56,10.0,10.0,77,0.00,,,0.00,weatherlink.com 1.10,2013-02-26 09:19:00,
2013-02-26 04:34:00,32.0,26.0,29.88,NNE,27,3.0,12.0,77,0.00,,,0.00,weatherlink.com 1.10,2013-02-26 09:34:00,
2013-02-26 04:49:00,32.0,26.0,29.87,NE,50,9.0,10.0,77,0.00,,,0.00,weatherlink.com 1.10,2013-02-26 09:49:00,
2013-02-26 05:04:00,31.8,25.0,29.84,NNW,330,3.0,11.0,77,0.00,,,0.00,weatherlink.com 1.10,2013-02-26 10:04:00,
2013-02-26 05:19:00,31.7,25.0,29.84,ENE,66,5.0,14.0,77,0.00,,,0.00,weatherlink.com 1.10,2013-02-26 10:19:00,
2013-02-26 05:34:00,31.8,25.0,29.84,NE,54,4.0,12.0,77,0.00,,,0.00,weatherlink.com 1.10,2013-02-26 10:34:00,
2013-02-26 05:49:00,31.9,25.0,29.82,East,82,3.0,11.0,77,0.00,,,0.00,weatherlink.com 1.10,2013-02-26 10:49:00,
2013-02-26 06:04:00,32.0,25.0,29.80,NNE,27,8.0,18.0,76,0.00,,,0.00,weatherlink.com 1.10,2013-02-26 11:04:00,
2013-02-26 06:19:00,32.1,25.0,29.79,NE,51,8.0,11.0,76,0.00,,,0.00,weatherlink.com 1.10,2013-02-26 11:19:00,
2013-02-26 06:34:00,32.4,25.0,29.80,ENE,74,4.0,14.0,75,0.00,,,0.00,weatherlink.com 1.10,2013-02-26 11:34:00,
2013-02-26 06:49:00,32.5,25.0,29.79,ENE,65,13.0,17.0,74,0.00,,,0.00,weatherlink.com 1.10,2013-02-26 11:49:00,
2013-02-26 07:04:00,32.7,25.0,29.77,NNW,330,7.0,13.0,73,0.00,,,0.00,weatherlink.com 1.10,2013-02-26 12:04:00,
2013-02-26 07:19:00,32.9,25.0,29.78,NE,37,9.0,14.0,72,0.00,,,0.00,weatherlink.com 1.10,2013-02-26 12:19:00,
2013-02-26 07:34:00,33.1,25.0,29.80,NNE,21,3.0,11.0,72,0.00,,,0.00,weatherlink.com 1.10,2013-02-26 12:34:00,
2013-02-26 07:49:00,33.1,25.0,29.80,ENE,69,8.0,14.0,72,0.00,,,0.00,weatherlink.com 1.10,2013-02-26 12:49:00,
2013-02-26 08:04:00,33.0,25.0,29.80,NNE,25,4.0,11.0,72,0.00,,,0.00,weatherlink.com 1.10,2013-02-26 13:04:00,
2013-02-26 08:19:00,33.0,25.0,29.79,NE,49,11.0,14.0,72,0.00,,,0.00,weatherlink.com 1.10,2013-02-26 13:19:00,
2013-02-26 08:34:00,32.8,25.0,29.77,ENE,65,3.0,19.0,74,0.00,,,0.00,weatherlink.com 1.10,2013-02-26 13:34:00,
2013-02-26 08:50:00,32.2,26.0,29.76,NE,50,9.0,17.0,79,0.00,,,0.00,weatherlink.com 1.10,2013-02-26 13:50:00,
2013-02-26 09:05:00,31.9,27.0,29.73,East,91,7.0,15.0,83,0.01,,,0.01,weatherlink.com 1.10,2013-02-26 14:05:00,
2013-02-26 09:20:00,31.5,28.0,29.70,NNE,18,9.0,18.0,85,0.01,,,0.01,weatherlink.com 1.10,2013-02-26 14:20:00,
2013-02-26 09:35:00,31.5,28.0,29.69,ENE,70,7.0,16.0,86,0.01,,,0.01,weatherlink.com 1.10,2013-02-26 14:35:00,
2013-02-26 09:50:00,31.6,28.0,29.68,NE,52,5.0,15.0,86,0.01,,,0.01,weatherlink.com 1.10,2013-02-26 14:50:00,
2013-02-26 10:05:00,31.8,28.0,29.66,NE,49,7.0,9.0,86,0.00,,,0.01,weatherlink.com 1.10,2013-02-26 15:05:00,
2013-02-26 10:20:00,32.0,28.0,29.65,East,86,10.0,11.0,86,0.00,,,0.01,weatherlink.com 1.10,2013-02-26 15:20:00,
2013-02-26 10:35:00,32.3,29.0,29.64,ENE,64,9.0,15.0,86,0.00,,,0.01,weatherlink.com 1.10,2013-02-26 15:35:00,
2013-02-26 10:50:00,32.4,29.0,29.62,NE,35,7.0,13.0,86,0.00,,,0.01,weatherlink.com 1.10,2013-02-26 15:50:00,
2013-02-26 11:05:00,32.5,29.0,29.59,ENE,58,5.0,17.0,87,0.00,,,0.01,weatherlink.com 1.10,2013-02-26 16:05:00,
2013-02-26 11:20:00,32.7,29.0,29.58,NE,51,6.0,14.0,87,0.00,,,0.01,weatherlink.com 1.10,2013-02-26 16:20:00,
2013-02-26 11:35:00,32.9,30.0,29.58,ENE,70,6.0,11.0,88,0.00,,,0.01,weatherlink.com 1.10,2013-02-26 16:35:00,
2013-02-26 11:50:00,32.9,30.0,29.57,East,95,4.0,13.0,89,0.00,,,0.01,weatherlink.com 1.10,2013-02-26 16:50:00,
2013-02-26 12:05:00,32.9,30.0,29.57,ENE,70,6.0,14.0,90,0.00,,,0.01,weatherlink.com 1.10,2013-02-26 17:05:00,
2013-02-26 12:20:00,32.9,31.0,29.58,NE,42,2.0,13.0,91,0.00,,,0.01,weatherlink.com 1.10,2013-02-26 17:20:00,
2013-02-26 12:35:00,32.7,31.0,29.59,ENE,72,4.0,13.0,92,0.00,,,0.01,weatherlink.com 1.10,2013-02-26 17:35:00,
2013-02-26 12:50:00,32.7,31.0,29.57,NNE,27,8.0,10.0,93,0.00,,,0.01,weatherlink.com 1.10,2013-02-26 17:50:00,
2013-02-26 13:05:00,32.8,31.0,29.55,ENE,64,2.0,13.0,93,0.00,,,0.01,weatherlink.com 1.10,2013-02-26 18:05:00,
2013-02-26 13:20:00,32.9,31.0,29.55,NNE,27,3.0,12.0,93,0.00,,,0.01,weatherlink.com 1.10,2013-02-26 18:20:00,
2013-02-26 13:35:00,33.0,32.0,29.54,NE,51,7.0,12.0,94,0.00,,,0.01,weatherlink.com 1.10,2013-02-26 18:35:00,
2013-02-26 13:50:00,33.3,32.0,29.53,NE,44,8.0,15.0,94,0.00,,,0.01,weatherlink.com 1.10,2013-02-26 18:50:00,
2013-02-26 14:05:00,33.6,32.0,29.52,SE,134,4.0,14.0,94,0.00,,,0.01,weatherlink.com 1.10,2013-02-26 19:05:00,
2013-02-26 14:20:00,33.7,32.0,29.51,NNE,30,4.0,13.0,94,0.00,,,0.01,weatherlink.com 1.10,2013-02-26 19:20:00,
2013-02-26 14:35:00,33.7,32.0,29.50,ESE,103,6.0,16.0,94,0.00,,,0.01,weatherlink.com 1.10,2013-02-26 19:35:00,
2013-02-26 14:51:00,33.7,32.0,29.49,East,84,8.0,12.0,94,0.00,,,0.01,weatherlink.com 1.10,2013-02-26 19:51:00,
2013-02-26 15:06:00,33.7,32.0,29.49,NE,51,4.0,11.0,94,0.00,,,0.01,weatherlink.com 1.10,2013-02-26 20:06:00,
2013-02-26 15:21:00,33.7,32.0,29.49,ENE,75,7.0,18.0,94,0.00,,,0.01,weatherlink.com 1.10,2013-02-26 20:21:00,
2013-02-26 15:36:00,33.7,32.0,29.49,North,354,8.0,13.0,94,0.01,,,0.02,weatherlink.com 1.10,2013-02-26 20:36:00,
2013-02-26 15:51:00,33.7,32.0,29.48,NE,55,5.0,12.0,94,0.01,,,0.02,weatherlink.com 1.10,2013-02-26 20:51:00,
2013-02-26 16:06:00,33.5,32.0,29.48,North,11,8.0,11.0,94,0.01,,,0.02,weatherlink.com 1.10,2013-02-26 21:06:00,
2013-02-26 16:21:00,33.5,32.0,29.48,ENE,76,7.0,10.0,94,0.01,,,0.02,weatherlink.com 1.10,2013-02-26 21:21:00,
2013-02-26 16:36:00,33.5,32.0,29.48,ENE,57,7.0,10.0,94,0.02,,,0.04,weatherlink.com 1.10,2013-02-26 21:36:00,
2013-02-26 16:51:00,33.6,32.0,29.48,ENE,65,2.0,10.0,94,0.02,,,0.04,weatherlink.com 1.10,2013-02-26 21:51:00,
2013-02-26 17:06:00,33.6,32.0,29.48,NE,36,3.0,10.0,94,0.03,,,0.05,weatherlink.com 1.10,2013-02-26 22:06:00,
2013-02-26 17:21:00,33.6,32.0,29.48,ENE,68,6.0,10.0,95,0.03,,,0.05,weatherlink.com 1.10,2013-02-26 22:21:00,
2013-02-26 17:36:00,33.5,32.0,29.48,ENE,64,2.0,10.0,95,0.02,,,0.06,weatherlink.com 1.10,2013-02-26 22:36:00,
2013-02-26 17:51:00,33.5,32.0,29.48,NE,53,7.0,13.0,95,0.03,,,0.07,weatherlink.com 1.10,2013-02-26 22:51:00,
2013-02-26 18:06:00,33.4,32.0,29.48,North,354,2.0,9.0,95,0.03,,,0.08,weatherlink.com 1.10,2013-02-26 23:06:00,
2013-02-26 18:21:00,33.5,32.0,29.48,NNE,17,1.0,9.0,95,0.03,,,0.08,weatherlink.com 1.10,2013-02-26 23:21:00,
2013-02-26 18:36:00,33.4,32.0,29.48,NE,56,2.0,7.0,95,0.03,,,0.09,weatherlink.com 1.10,2013-02-26 23:36:00,
2013-02-26 18:51:00,33.5,32.0,29.48,ENE,75,2.0,8.0,95,0.02,,,0.09,weatherlink.com 1.10,2013-02-26 23:51:00,
2013-02-26 19:06:00,33.4,32.0,29.48,NNE,12,1.0,6.0,95,0.01,,,0.09,weatherlink.com 1.10,2013-02-27 00:06:00,
2013-02-26 19:21:00,33.1,32.0,29.48,NNE,15,1.0,7.0,95,0.01,,,0.09,weatherlink.com 1.10,2013-02-27 00:21:00,
2013-02-26 19:36:00,32.9,32.0,29.48,NNW,342,1.0,5.0,95,0.00,,,0.09,weatherlink.com 1.10,2013-02-27 00:36:00,
2013-02-26 19:51:00,33.0,32.0,29.48,NNE,33,1.0,4.0,95,0.00,,,0.09,weatherlink.com 1.10,2013-02-27 00:51:00,
2013-02-26 20:06:00,33.2,32.0,29.48,ESE,106,1.0,4.0,96,0.01,,,0.10,weatherlink.com 1.10,2013-02-27 01:06:00,
2013-02-26 20:21:00,33.3,32.0,29.48,NNE,18,2.0,5.0,96,0.02,,,0.11,weatherlink.com 1.10,2013-02-27 01:21:00,
2013-02-26 20:36:00,33.3,32.0,29.48,North,3,1.0,4.0,96,0.03,,,0.12,weatherlink.com 1.10,2013-02-27 01:36:00,
2013-02-26 20:51:00,33.3,32.0,29.48,NNE,19,2.0,2.0,96,0.04,,,0.13,weatherlink.com 1.10,2013-02-27 01:51:00,
2013-02-26 21:06:00,33.3,32.0,29.48,ENE,64,0.0,3.0,96,0.04,,,0.14,weatherlink.com 1.10,2013-02-27 02:06:00,
2013-02-26 21:21:00,33.3,32.0,29.48,ENE,58,3.0,4.0,96,0.04,,,0.15,weatherlink.com 1.10,2013-02-27 02:21:00,
2013-02-26 21:36:00,33.3,32.0,29.48,ENE,63,0.0,2.0,96,0.03,,,0.15,weatherlink.com 1.10,2013-02-27 02:36:00,
2013-02-26 21:51:00,33.2,32.0,29.48,North,3,0.0,1.0,96,0.03,,,0.16,weatherlink.com 1.10,2013-02-27 02:51:00,
2013-02-26 22:06:00,33.0,32.0,29.47,North,8,0.0,1.0,96,0.02,,,0.16,weatherlink.com 1.10,2013-02-27 03:06:00,
2013-02-26 22:21:00,32.7,32.0,29.47,North,9,0.0,1.0,96,0.01,,,0.16,weatherlink.com 1.10,2013-02-27 03:21:00,
2013-02-26 22:36:00,32.5,32.0,29.47,North,9,0.0,1.0,96,0.01,,,0.16,weatherlink.com 1.10,2013-02-27 03:36:00,
2013-02-26 22:51:00,32.4,31.0,29.47,North,11,0.0,1.0,96,0.00,,,0.16,weatherlink.com 1.10,2013-02-27 03:51:00,
2013-02-26 23:06:00,32.2,31.0,29.47,North,11,0.0,1.0,96,0.00,,,0.16,weatherlink.com 1.10,2013-02-27 04:06:00,
2013-02-26 23:21:00,32.1,31.0,29.47,North,11,0.0,0.0,96,0.00,,,0.16,weatherlink.com 1.10,2013-02-27 04:21:00,
2013-02-26 23:36:00,32.0,31.0,29.47,North,11,0.0,0.0,96,0.00,,,0.16,weatherlink.com 1.10,2013-02-27 04:36:00,
2013-02-26 23:51:00,31.9,31.0,29.47,North,11,0.0,0.0,96,0.00,,,0.16,weatherlink.com 1.10,2013-02-27 04:51:00,